Location: Habighorst
(52.7089°N, 10.2278°E)
Time: 22:39:05
(UTC+00:00)

Cosmos 921 Rocket - Pass Details

Date: 13 January 2026
Orbit: 564 x 620 km, 75.8° (Epoch: 7 February)

Event Time Altitude Azimuth Distance (km) Brightness Sun altitude
Rises 06:10:50 0° 218° (SW) 2,838 6.3 -10.7°
Reaches altitude 10° 06:13:08 10° 225° (SW) 1,930 5.4 -10.4°
Maximum altitude 06:17:16 45° 299° (WNW) 809 3.2 -9.8°
Drops below altitude 10° 06:21:22 10° 13° (NNE) 1,910 5.5 -9.2°
Sets 06:23:39 0° 19° (NNE) 2,805 6.4 -8.9°
